Regional Weather Roundup
Issued by NWS

Home | Current Version | Previous Version | Text Only | Print | Product List | Glossary On
Versions: 1 2 3 4 5 6 7 8 9 10 11 12 13 14 15 16 17 18 19 20 21 22 23 24 25 26 27 28 29 30 31 32 33 34 35 36 37 38 39 40 41 42 43 44 45 46 47 48 49 50
000
ASMX46 KSGX 272110
RWRMX

MEXICAN WEATHER ROUNDUP
NATIONAL WEATHER SERVICE SAN DIEGO CA
100 PM PST THU NOV 27 2014

BAJA CALIFORNIA

CITY           SKY/WX    TMP DP  RH WIND       PRES   REMARKS
ENSENADA NW      N/A     75  32  20 SW2       30.01F
LA PAZ         SUNNY     81  59  47 N14       29.97
LORETO         SUNNY     79  63  57 NE12      29.97F
MEXICALI       SUNNY     81  25  12 W7        30.09
S.J. DEL CABO  SUNNY     88  55  33 N12       29.92F
TIJUANA        SUNNY     86  14   7 W15       30.05F

NORTHWESTERN MEXICO

CITY           SKY/WX    TMP DP  RH WIND       PRES   REMARKS
CHIHUAHUA      SUNNY     70  23  17 E10       30.32
CULIACAN       SUNNY     91  55  29 NW6       29.90
GUAYMAS        SUNNY     82  48  30 S7        29.93
HERMOSILLO     SUNNY     90  23   9 N3        30.01
JUAREZ         SUNNY     64  34  32 E7        30.29
LOS MOCHIS     SUNNY     84  48  28 NW12      29.94F
OBREGON        SUNNY     86  36  16 NW9       29.93

NORTHEASTERN MEXICO

CITY           SKY/WX    TMP DP  RH WIND       PRES   REMARKS
MATAMOROS      MOSUNNY   73  57  56 E7        30.39
MONCLOVA       SUNNY     70  36  28 CALM      30.31F
MONTERREY      SUNNY     72  34  25 E7        30.32F
NUEVO LAREDO   SUNNY     77  46  33 S7        30.34
PIEDRAS NEGRAS SUNNY     68  41  37 E9        30.38F
REYNOSA        MOSUNNY   73  43  33 S7        30.33
SALTILLO       SUNNY     63  37  39 NE12      30.39F
TORREON        SUNNY     66  19  16 CALM      30.33F
VICTORIA       PTSUNNY   73  48  40 E3        30.33

WESTERN MEXICO

CITY           SKY/WX    TMP DP  RH WIND       PRES   REMARKS
AGUASCALIENTES PTSUNNY   68  -4   5 SE9       30.32
DURANGO        SUNNY     68   1   7 NW6       30.33F
GUADALAJARA    MOSUNNY   75  12   9 NE13      30.20
MANZANILLO     PTSUNNY   86  70  58 SW6       29.85S
MAZATLAN       MOSUNNY   84  50  30 SW9       29.88F
PTO. VALLARTA  PTSUNNY   86  57  37 W7        29.84F
TEPIC          PTSUNNY   82  52  34 SE12      30.07F
URUAPAN        PTSUNNY   73  52  46 S9        30.18F

CENTRAL MEXICO

CITY           SKY/WX    TMP DP  RH WIND       PRES   REMARKS
CUERNAVACA     MOSUNNY   75  23  14 S5        30.17F
LEON           PTSUNNY   72   5   7 E13       30.34F
MEXICO CITY    MOSUNNY   68   5   8 N7        30.34F
MORELIA        PTSUNNY   72  18  13 CALM      30.25F
POZA RICA      PTSUNNY   75  59  57 NE9       30.35R
PUEBLA         MOSUNNY   72   7   8 NE9       30.32F
QUERETARO      PTSUNNY   68   7   9 E29G40    30.34F
S. LUIS POTOSI PTSUNNY   63  19  19 E12G23    30.39F
TAMPICO        PTSUNNY   73  50  43 E10       30.33F
TOLUCA         MOSUNNY   66   0   7 NE20      30.38F
VERACRUZ       MOSUNNY   75  52  43 NE10      30.29F

SOUTHERN MEXICO

CITY           SKY/WX    TMP DP  RH WIND       PRES   REMARKS
ACAPULCO       SUNNY     86  77  74 S6        29.85F HX  97
B. DE HUATULCO SUNNY     86  73  66 W8        29.87
MINATITLAN       N/A    N/A N/A N/A MISG        N/A
OAXACA         SUNNY     70  28  21 NW8       30.26F
PTO. ESCONDIDO SUNNY     84  64  51 W9        30.00F
TAPACHULA      PTSUNNY   86  77  74 CALM      29.83F HX  97
TUX. GUTIERREZ CLOUDY    73  54  49 NW21      30.15F
VILLAHERMOSA   CLOUDY    70  66  88 CALM      30.26F
ZIHUATANEJO    PTSUNNY   90  72  55 SW9       29.87F HX  96

YUCATAN PENINSULA

CITY           SKY/WX    TMP DP  RH WIND       PRES   REMARKS
CAMPECHE       MOSUNNY   75  61  60 N12       30.18S
CANCUN         PTSUNNY   75  61  60 NE12      30.16F
CHETUMAL       CLOUDY    75  64  69 N12       30.11F
C. DEL CARMEN  PTSUNNY   77  59  53 NE10      30.21
COZUMEL        PTSUNNY   72  63  73 NE12      30.15S
MERIDA         PTSUNNY   77  57  50 N13G24    30.21F

$$



USA.gov is the U.S. government's official web portal to all federal, state and local government web resources and services.